Regional Weather Roundup
Issued by NWS

Home | Current Version | Previous Version | Graphics & Text | Print | Product List | Glossary On
Versions: 1 2 3 4 5 6 7 8 9 10 11 12 13 14 15 16 17 18 19 20 21 22 23 24 25 26 27 28 29 30 31 32 33 34 35 36 37 38 39 40 41 42 43 44 45 46 47 48 49 50
000
ASUS43 KFSD 290310
RWRSD

WEATHER ROUNDUP FOR SOUTH DAKOTA
NATIONAL WEATHER SERVICE SIOUX FALLS SD
1000 PM CDT TUE JUL 28 2015

NOTE: "FAIR" INDICATES FEW OR NO CLOUDS BELOW 12,000 FEET WITH NO
SIGNIFICANT WEATHER AND/OR OBSTRUCTIONS TO VISIBILITY.


SDZ001>005-009-010-012>017-290400-
NORTHWEST AND NORTH CENTRAL SOUTH DAKOTA

CITY           SKY/WX    TMP DP  RH WIND       PRES   REMARKS
BUFFALO          N/A     62  38  40 W15       30.02R
FAITH            N/A     65  40  39 W14       30.06R
MOBRIDGE       CLEAR     68  47  46 W12       29.94R
$$

SDZ012>016-024>037-041>051-057-063-072>074-290400-
SOUTHWEST AND SOUTH CENTRAL SOUTH DAKOTA

CITY           SKY/WX    TMP DP  RH WIND       PRES   REMARKS
RAPID CTY ARPT CLEAR     63  45  51 N14       30.13R
PIERRE         CLEAR     70  50  49 NW15      30.02R
CUSTER         CLEAR     58  35  42 VRB3      30.24R
ELLSWORTH AFB  CLEAR     63  44  49 NW13      30.13R
PHILIP         CLEAR     63  48  58 NW5       30.07R
PINE RIDGE     CLEAR     58  44  60 E3        30.14R
SPEARFISH      FAIR      63  37  39 W9        30.19R
WINNER         FAIR      68  52  56 NW7       30.06R
$$

SDZ004>011-016>023-039-040-290400-
NORTHEAST SOUTH DAKOTA

CITY           SKY/WX    TMP DP  RH WIND       PRES   REMARKS
ABERDEEN       CLEAR     67  51  56 W10       29.93R
WATERTOWN      CLEAR     69  52  54 W10       29.95R
BROOKINGS      CLEAR     66  55  68 W7        29.99R
SISSETON         N/A     69  51  52 W13G18    29.88R
$$

SDZ017-020-022-023-036>040-048>070-290400-
SOUTHEAST SOUTH DAKOTA

CITY           SKY/WX    TMP DP  RH WIND       PRES   REMARKS
SIOUX FALLS    PTCLDY    66  59  78 CALM      29.98R
HURON          CLEAR     63  56  78 W7        29.97R
CHAMBERLAIN    CLEAR     66  51  59 NW8       30.03R
MITCHELL       CLEAR     69  53  56 W8        29.99R
YANKTON        CLEAR     70  55  60 W7        29.97R
$$

ABBREVIATIONS USED IN REMARKS
   TC - TEMPERATURE IN CELSIUS
  WCI - WIND CHILL INDEX
   HX - HEAT INDEX
  VSB - VISIBILITY



USA.gov is the U.S. government's official web portal to all federal, state and local government web resources and services.